Regional Weather Roundup
Issued by NWS Cleveland, OH

Home | Current Version | Previous Version | Text Only | Print | Product List | Glossary Off
Versions: 1 2 3 4 5 6 7 8 9 10 11 12 13 14 15 16 17 18 19 20 21 22 23 24 25 26 27 28 29 30 31 32 33 34 35 36 37 38 39 40 41 42 43 44 45 46 47 48 49 50

289
ASUS41 KCLE 302312
RWRCLE
OHIO REGIONAL WEATHER ROUNDUP
NATIONAL WEATHER SERVICE WILMINGTON, OH
700 PM EDT SUN APR 30 2017

NOTE: "FAIR" INDICATES FEW OR NO CLOUDS BELOW 12,000 FEET WITH NO
SIGNIFICANT WEATHER AND/OR OBSTRUCTIONS TO VISIBILITY.

OHZ001>008-015>018-024>027-034-035-043-044-010000-
   NORTHWEST OHIO

CITY           SKY/WX    TMP DP  RH WIND       PRES   REMARKS
DEFIANCE       CLOUDY    64  62  93 SW6       29.81R
FINDLAY        PTSUNNY   67  62  84 W6        29.81F
TOLEDO EXPRESS LGT RAIN  54  54 100 E6        29.82S FOG
TOLEDO EXEC    LGT RAIN  54  54 100 CALM      29.84S FOG
LIMA           PTSUNNY   65  64  97 CALM      29.80F
$$

OHZ009>014-019>023-028>033-038-089-010000-
   NORTHEAST OHIO

CITY           SKY/WX    TMP DP  RH WIND       PRES   REMARKS
CLE-HOPKINS    PTSUNNY   82  61  48 S12       29.83F
CLE-LAKEFRONT  FAIR      60  55  83 N5        29.80F
CUY CO. ARPT   CLOUDY    82  64  54 S9        29.84F
LORAIN-ELYRIA  FAIR      79  62  56 SW13      29.81F
ASHTABULA      FAIR      63  56  78 E5        29.87F
AKRON-CANTON   PTSUNNY   79  63  57 S10       29.86F
WOOSTER        FAIR      79  63  57 S16G23    29.85F
MANSFIELD      FAIR      79  62  56 S22G32    29.84S
YOUNGSTOWN     PTSUNNY   77  62  59 SW8       29.88F
$$

OHZ042-051>053-060>062-070>072-077>081-010000-
  SOUTHWEST OHIO

CITY           SKY/WX    TMP DP  RH WIND       PRES   REMARKS
CINC-COVINGTON CLOUDY    78  64  61 S14G28    29.80F
CINC-LUNKEN    FAIR      79  66  64 S10       29.80F
HAMILTON       PTSUNNY   82  64  54 S8G24     29.80F
DAYTON         CLOUDY    78  62  57 S10       29.81F
WRIGHT-PAT AFB PTSUNNY   80  63  56 S10       29.81S
DAYTON GENERAL CLOUDY    78  63  59 S15       29.81F
WILMINGTON     PTSUNNY   78  63  59 S14       29.83S
$$

OHZ036-037-039>041-045>050-054>059-063>069-073>076-082>088-010000-
  CENTRAL AND SOUTHEAST OHIO

CITY           SKY/WX    TMP DP  RH WIND       PRES   REMARKS
COLUMBUS       CLOUDY    81  66  60 S10       29.84S
OSU AIRPORT    FAIR      80  65  59 S14       29.83S
BOLTON FIELD   PTSUNNY   79  66  65 S15G21    29.85R
RICKENBACK AFB FAIR      79  67  66 S14       29.83S
NEWARK         PTSUNNY   78  67  68 SE5       29.84F
MARION         PTSUNNY   79  64  60 S12       29.82F
LANCASTER      FAIR      82  65  56 S6        29.86R
ZANESVILLE     FAIR      80  67  64 S6        29.86F
NEW PHILLY     FAIR      76  69  79 SE5       29.87F
$$




USA.gov is the U.S. government's official web portal to all federal, state and local government web resources and services.